CAPE
0 0 0 0 0 0 0 0 0 0 0 0 0 0 0 0 0 0 0 0 0 0 0 0 0 0 0 0 0 0 0 0 0 0 0 0 0 0 0 39 44 51 51 54
0 0 0 0 0 0 0 0 0 0 0 0 0 0 0 0 0 0 0 0 0 0 0 0 0 0 0 0 0 0 0 0 0 1 0 0 0 0 0 64 72 35 37 45
0 0 0 0 0 0 0 0 0 0 0 0 0 0 0 0 0 0 0 0 0 0 0 0 0 0 0 0 2 1 1 1 1 0 1 0 1 0 0 96 103 59 48 54
0 0 0 0 0 0 0 0 0 0 0 0 0 0 0 0 0 0 0 0 0 0 0 0 0 0 0 4 4 1 0 1 2 0 0 0 0 0 0 92 201 164 60 38
0 0 0 0 0 0 0 0 0 0 0 0 0 0 0 0 0 0 0 0 0 0 0 0 0 1 3 2 1 1 1 2 1 0 0 0 0 0 104 127 71 1 0 0
0 0 0 0 0 0 0 0 0 0 0 0 0 0 0 0 0 0 0 0 0 0 0 0 0 0 1 2 1 1 1 3 2 1 0 0 0 29 1 3 4 4 4 4
0 0 0 0 0 0 0 0 0 0 0 0 0 0 0 0 0 0 0 0 0 0 0 0 0 1 2 2 2 1 2 2 3 4 3 3 2 2 3 3 3 4 2 1
0 0 0 0 0 0 0 0 0 0 0 0 0 0 0 0 0 0 0 0 0 0 0 0 0 0 1 1 2 1 1 2 2 2 3 3 3 3 3 2 3 3 4 1
0 0 0 0 0 0 0 0 0 0 0 0 0 0 0 0 0 0 0 0 0 0 0 0 0 0 1 2 1 2 1 1 1 1 1 2 3 2 4 2 2 2 1 0
0 0 0 0 0 0 0 0 0 0 0 0 0 0 0 0 0 0 0 0 0 0 0 0 0 0 0 1 0 0 0 2 2 1 1 2 1 1 0 0 1 0 0 0
0 0 0 0 0 0 0 0 0 0 0 0 0 0 0 0 0 0 0 0 0 0 0 0 0 0 0 0 0 0 0 0 1 0 0 0 0 0 0 0 0 0 0 0
0 0 0 0 0 0 0 0 0 0 0 0 0 0 0 0 0 0 0 0 0 0 0 0 0 0 0 0 0 0 0 0 0 0 0 0 0 0 0 0 0 0 0 0
0 0 0 0 0 0 0 0 0 0 0 0 0 0 0 0 0 0 0 0 0 0 0 0 0 0 0 0 0 0 0 0 0 0 0 0 0 0 0 0 0 0 0 0
0 0 0 0 0 0 0 0 0 0 0 0 0 0 0 0 0 0 0 0 0 0 0 0 0 0 0 0 0 0 0 0 0 0 0 0 0 0 0 0 0 0 0 0
0 0 0 0 0 0 0 0 0 0 0 0 0 0 0 0 0 0 0 0 0 0 0 0 0 0 0 0 0 0 0 0 0 0 0 0 0 0 0 0 0 0 0 0
0 0 0 0 0 0 0 0 0 0 0 0 0 0 0 0 0 0 0 0 0 0 0 0 0 0 0 0 0 0 0 0 0 0 0 0 0 0 0 0 0 0 0 0
0 0 0 0 0 0 0 0 0 0 0 0 0 0 0 0 0 0 0 0 0 0 0 0 0 0 0 0 0 0 0 0 0 0 0 0 0 0 0 0 0 0 0 0
0 0 0 0 0 0 0 0 0 0 0 0 0 0 0 0 0 0 0 0 0 0 0 0 0 0 0 0 0 0 0 0 0 0 0 0 0 0 0 0 0 0 0 0
0 0 0 0 0 0 0 0 0 0 0 0 0 0 0 0 0 0 0 0 0 0 0 0 0 0 0 0 0 0 0 0 0 0 0 0 0 0 0 0 0 0 0 0
0 0 0 0 0 0 0 0 0 0 0 0 0 0 0 0 0 0 0 0 0 0 0 0 0 0 0 0 0 0 0 0 0 0 0 0 0 0 0 0 0 0 0 0
0 0 0 0 0 0 0 0 0 0 0 0 0 0 0 0 0 0 0 0 0 0 0 0 0 0 0 0 0 0 0 0 0 0 0 0 0 0 0 0 0 0 0 0
0 0 0 0 0 0 0 0 0 0 0 0 0 0 0 0 0 0 0 0 0 0 0 0 0 0 0 0 0 0 0 0 0 0 0 0 0 0 0 0 0 0 1 0
0 0 0 0 0 0 0 0 0 0 0 0 0 0 0 0 0 0 0 0 0 0 0 0 0 0 0 0 0 0 0 0 0 0 0 0 0 0 0 0 0 0 0 0
0 0 0 0 0 0 0 0 0 0 0 0 0 0 0 0 0 0 0 0 0 0 0 0 0 0 0 0 0 0 0 0 0 0 0 0 0 0 0 0 0 0 0 0
0 0 0 0 0 0 0 0 0 0 0 0 0 0 0 0 0 0 0 0 0 0 0 0 0 0 0 0 0 0 0 0 0 0 0 0 0 0 0 0 0 0 0 0
0 0 0 0 0 0 0 0 0 0 0 0 0 0 0 0 0 0 0 0 0 0 0 0 0 0 0 0 0 0 0 0 0 0 0 0 0 0 0 0 0 0 0 1
CIN
0 0 0 0 0 0 0 0 0 0 0 0 0 0 0 0 0 0 0 0 0 0 0 0 0 0 0 -1 0 0 0 0 0 0 0 0 0 0 0 -41 -29 -17 -23 -25
0 0 0 0 0 0 0 0 0 0 0 0 0 0 0 0 0 0 0 0 0 0 0 0 0 0 0 0 -1 0 0 0 0 0 0 0 0 0 0 -17 -21 -29 -35 -29
0 0 0 0 0 0 0 0 0 0 0 0 0 0 0 0 0 0 0 0 0 0 0 0 0 0 0 0 0 0 0 0 0 0 0 0 -1 0 0 -3 -3 -29 -49 -32
0 0 0 0 0 0 0 0 0 0 0 0 0 0 0 0 0 0 0 0 0 0 0 0 0 0 0 0 0 0 0 0 0 -1 0 0 0 0 0 -16 -4 -7 -32 -22
0 0 0 0 0 0 0 0 0 0 0 0 0 0 0 0 0 0 0 0 0 0 0 0 0 0 0 0 0 0 0 0 0 0 0 0 0 0 -10 -15 -39 0 0 0
0 0 0 0 0 0 0 0 0 0 0 0 0 0 0 0 0 0 0 0 0 0 0 0 0 0 0 0 0 0 0 0 0 0 0 0 0 -13 0 0 0 0 0 0
0 0 0 0 0 0 0 0 0 0 0 0 0 0 0 0 0 0 0 0 0 0 0 0 0 0 0 0 0 0 0 0 0 0 0 0 0 0 0 0 0 0 0 0
0 0 0 0 0 0 0 0 0 0 0 0 0 0 0 0 0 0 0 0 0 0 0 0 0 0 0 0 0 0 0 0 0 0 0 0 0 0 0 0 0 0 0 0
0 0 0 0 0 0 0 0 0 0 0 0 0 0 0 0 0 0 0 0 0 0 0 0 0 0 0 0 0 0 0 0 0 0 0 0 0 0 0 0 0 0 0 0
0 0 0 0 0 0 0 0 0 0 0 0 0 0 0 0 0 0 0 0 0 0 0 0 0 0 0 0 0 0 0 0 0 0 0 0 0 0 0 0 0 0 0 0
0 0 0 0 0 0 0 0 0 0 0 0 0 0 0 0 0 0 0 0 0 0 0 0 0 0 0 0 0 0 0 0 0 0 0 0 0 0 0 0 0 0 0 0
0 0 0 0 0 0 0 0 0 0 0 0 0 0 0 0 0 0 0 0 0 0 0 0 0 0 0 0 0 0 0 0 0 0 0 0 0 0 0 0 0 0 0 0
0 0 0 0 0 0 0 0 0 0 0 0 0 0 0 0 0 0 0 0 0 0 0 0 0 0 0 0 0 0 0 0 0 0 0 0 0 0 0 0 0 0 0 0
0 0 0 0 0 0 0 0 0 0 0 0 0 0 0 0 0 0 0 0 0 0 0 0 0 0 0 0 0 0 0 0 0 0 0 0 0 0 0 0 0 0 0 0
0 0 0 0 0 0 0 0 0 0 0 0 0 0 0 0 0 0 0 0 0 0 0 0 0 0 0 0 0 0 0 0 0 0 0 0 0 0 0 0 0 0 0 0
0 0 0 0 0 0 0 0 0 0 0 0 0 0 0 0 0 0 0 0 0 0 0 0 0 0 0 0 0 0 0 0 0 0 0 0 0 0 0 0 0 0 0 0
0 0 0 0 0 0 0 0 0 0 0 0 0 0 0 0 0 0 0 0 0 0 0 0 0 0 0 0 0 0 0 0 0 0 0 0 0 0 0 0 0 0 0 0
0 0 0 0 0 0 0 0 0 0 0 0 0 0 0 0 0 0 0 0 0 0 0 0 0 0 0 0 0 0 0 0 0 0 0 0 0 0 0 0 0 0 0 0
0 0 0 0 0 0 0 0 0 0 0 0 0 0 0 0 0 0 0 0 0 0 0 0 0 0 0 0 0 0 0 0 0 0 0 0 0 0 0 0 0 0 0 0
0 0 0 0 0 0 0 0 0 0 0 0 0 0 0 0 0 0 0 0 0 0 0 0 0 0 0 0 0 0 0 0 0 0 0 0 0 0 0 0 0 0 0 0
0 0 0 0 0 0 0 0 0 0 0 0 0 0 0 0 0 0 0 0 0 0 0 0 0 0 0 0 0 0 0 0 0 0 0 0 0 0 0 0 0 0 0 0
0 0 0 0 0 0 0 0 0 0 0 0 0 0 0 0 0 0 0 0 0 0 0 0 0 0 0 0 0 0 0 0 0 0 0 0 0 0 0 0 0 0 0 0
0 0 0 0 0 0 0 0 0 0 0 0 0 0 0 0 0 0 0 0 0 0 0 0 0 0 0 0 0 0 0 0 0 0 0 0 0 0 0 0 0 0 0 0
0 0 0 0 0 0 0 0 0 0 0 0 0 0 0 0 0 0 0 0 0 0 0 0 0 0 0 0 0 0 0 0 0 0 0 0 0 0 0 0 0 0 0 0
0 0 0 0 0 0 0 0 0 0 0 0 0 0 0 0 0 0 0 0 0 0 0 0 0 0 0 0 0 0 0 0 0 0 0 0 0 0 0 0 0 0 -1 0
0 0 0 0 0 0 0 0 0 0 0 0 0 0 0 0 0 0 0 0 0 0 0 0 0 0 0 0 0 0 0 0 0 0 0 0 0 0 0 0 0 0 0 0
Wind_Speed
11 7 6 8 10 11 11 11 12 14 15 16 13 13 14 18 25 27 30 34 35 38 42 47 49 47 50 51 50 50 47 46 43 42 40 40 41 41 41 39 35 31 29 28
8 5 7 9 11 11 11 10 11 15 15 17 15 13 14 19 23 27 31 33 36 38 43 49 52 50 52 52 53 49 43 45 44 40 36 36 36 37 40 37 37 36 32 30
4 6 8 8 10 10 12 10 12 13 16 15 15 15 12 16 22 26 31 33 36 38 42 52 54 53 54 54 55 51 44 45 45 43 31 29 36 37 37 38 37 35 32 29
9 8 7 7 9 11 10 13 15 16 17 16 17 18 14 16 23 29 33 35 35 36 39 49 53 54 54 57 53 46 45 46 43 29 25 25 30 32 33 35 34 34 33 32
6 5 6 7 10 12 12 14 16 16 17 17 15 17 17 18 22 28 31 33 34 34 38 48 51 53 50 55 52 44 44 43 35 20 21 22 24 29 30 29 26 21 22 24
9 12 10 10 11 13 12 14 17 17 17 17 14 16 18 20 22 25 28 31 33 33 36 42 46 47 51 36 50 38 44 36 30 17 14 15 19 21 16 17 17 13 15 13
12 10 11 10 11 13 12 13 16 18 16 16 14 17 17 17 21 25 28 31 32 32 34 40 45 51 53 55 51 41 43 30 23 18 15 12 6 5 9 11 10 10 8 10
10 12 6 7 10 9 7 11 13 17 17 18 16 16 17 16 20 23 26 29 31 33 35 39 41 46 49 53 52 44 43 28 24 21 21 17 11 7 4 7 6 3 6 8
11 13 11 10 10 9 9 10 12 16 17 19 15 16 13 14 18 23 26 29 30 30 32 36 40 42 45 47 51 52 45 41 29 26 25 18 14 12 6 8 11 8 11 11
13 15 12 11 11 11 10 10 13 14 17 18 16 16 13 11 16 21 25 27 27 27 29 35 38 41 41 43 46 48 51 45 36 34 27 20 18 16 16 14 14 16 15 15
13 16 14 12 9 6 9 11 10 13 13 16 19 16 12 11 14 19 22 24 24 25 26 30 35 38 41 41 42 43 44 44 33 28 27 25 24 24 22 23 20 19 18 20
13 15 16 15 15 12 12 11 8 13 14 12 15 17 9 11 13 17 19 21 22 22 23 26 31 35 39 41 41 41 37 32 37 39 37 38 37 28 29 24 25 24 24 23
12 17 20 20 18 14 12 11 10 11 13 11 14 14 7 9 12 14 17 20 20 21 22 23 28 32 35 37 39 39 38 35 32 32 34 36 32 33 33 32 32 30 29 26
15 19 20 21 19 13 12 11 8 8 12 12 10 11 4 4 7 11 14 17 18 19 20 21 25 28 31 34 35 36 35 34 33 33 32 30 30 30 31 32 31 30 29 28
18 24 22 22 21 17 17 15 8 11 10 10 12 6 2 4 5 9 12 15 17 18 19 21 24 25 28 31 33 34 35 34 34 34 32 31 31 30 30 29 29 29 28 26
19 27 24 28 24 23 24 20 14 13 13 13 13 10 7 3 5 8 10 13 15 17 19 21 23 24 25 26 29 30 29 32 32 33 33 33 33 32 32 30 30 29 27 26
17 19 23 32 26 27 30 19 18 16 14 13 12 8 2 2 6 8 11 12 15 17 19 20 21 22 22 24 24 25 22 20 24 28 29 30 30 30 30 30 30 29 28 27
17 18 21 25 23 32 24 19 15 15 17 15 14 8 7 8 8 9 11 12 14 16 18 19 20 21 21 20 21 22 22 21 19 20 21 22 24 27 27 27 28 27 27 27
18 18 22 25 24 32 28 17 15 14 19 14 13 10 6 3 2 4 10 12 14 16 17 18 19 19 19 20 20 22 24 25 25 25 26 26 25 27 28 28 28 26 25 26
20 20 20 22 26 29 24 16 13 13 23 13 12 12 12 10 8 6 13 12 13 14 16 16 17 18 19 20 21 23 25 26 27 26 25 26 27 28 28 29 29 28 26 26
20 23 25 24 30 31 16 11 7 16 18 17 9 12 16 13 7 3 13 12 13 14 15 15 15 17 18 19 20 22 23 25 24 24 25 26 27 27 27 27 28 27 26 26
18 19 23 23 28 33 12 8 13 14 16 14 4 12 15 8 5 10 13 13 13 14 13 13 14 16 17 18 19 21 22 22 23 24 25 27 28 28 29 29 28 28 27 26
26 22 21 18 21 16 3 12 10 15 16 11 4 10 13 9 7 11 13 14 13 13 13 14 14 14 15 16 18 19 20 20 22 24 27 28 30 31 32 33 32 31 30 29
27 20 25 22 22 18 15 12 11 11 14 9 6 11 13 10 11 11 12 12 12 12 14 13 13 13 13 15 16 17 18 19 22 25 28 30 33 34 35 34 34 32 32 30
23 14 20 26 27 23 19 14 12 12 9 7 7 11 12 12 12 13 13 13 13 14 13 12 12 11 12 13 15 16 18 19 22 25 28 31 33 35 36 35 33 32 29 26
20 20 20 24 20 17 18 7 8 9 8 8 9 12 12 13 14 13 14 14 15 14 12 10 10 9 10 12 13 15 17 19 22 25 28 32 35 36 35 36 34 28 26 26
Wind_Direction
341 28 56 51 30 32 34 41 36 28 26 19 23 24 29 19 14 16 12 8 6 1 354 348 345 347 339 330 327 319 309 305 298 286 278 272 267 260 256 254 256 255 257 262
354 19 18 12 11 18 22 29 24 15 18 15 16 13 22 18 16 17 14 11 8 3 357 348 346 351 344 325 325 321 327 312 300 289 281 271 267 262 256 254 253 254 257 262
343 360 348 1 1 9 6 12 14 13 10 13 11 9 21 20 17 17 14 14 11 8 2 349 343 353 337 330 326 327 328 318 297 282 281 274 264 261 257 251 252 255 256 261
333 330 345 348 346 351 356 1 2 5 7 6 16 6 15 16 9 12 13 14 14 11 8 358 344 352 339 340 345 343 329 323 312 298 279 269 259 258 256 252 254 258 258 261
323 330 329 333 338 343 351 354 355 1 2 3 8 8 15 15 10 13 15 17 18 17 13 5 343 346 6 360 357 0 352 338 330 315 279 266 259 258 258 254 252 256 268 272
322 319 330 330 336 340 352 352 352 355 359 357 9 10 11 13 15 16 20 21 21 21 18 15 11 14 12 23 12 23 3 351 353 335 277 268 258 266 258 254 250 261 272 282
313 314 325 325 327 333 341 349 345 346 352 352 10 3 6 19 20 20 21 23 25 26 24 20 17 4 13 11 20 36 19 357 359 6 14 14 346 304 262 252 255 262 286 313
291 302 295 321 319 331 339 340 342 342 346 350 359 0 9 27 25 27 28 29 31 30 29 26 25 21 19 13 30 43 48 7 9 13 20 25 20 360 307 278 331 328 336 339
301 304 318 324 323 331 337 332 348 344 345 344 355 1 14 28 23 24 26 29 33 35 35 32 29 28 27 19 25 34 55 25 19 23 28 31 38 42 39 13 23 22 15 6
303 309 314 319 322 318 328 347 340 343 342 342 351 351 359 26 22 24 27 31 38 42 43 38 35 34 35 34 34 37 37 31 32 39 41 49 56 47 33 14 12 19 11 17
298 302 313 315 302 294 314 320 332 342 342 341 343 354 20 39 34 30 34 37 43 47 51 46 43 41 39 42 37 47 47 40 35 38 40 42 37 35 35 29 22 24 14 13
291 307 298 300 314 316 309 311 310 323 332 340 345 345 40 45 42 39 42 45 49 55 59 56 51 46 42 38 37 35 31 24 31 41 42 41 43 35 35 28 24 21 20 15
289 294 295 304 307 307 300 292 303 322 334 325 336 348 47 45 43 47 48 49 53 61 64 65 57 51 46 42 39 36 33 28 25 29 36 39 32 33 33 29 31 29 28 18
293 289 290 293 309 323 308 291 265 290 311 320 313 341 20 62 52 59 57 55 60 66 69 71 65 58 52 47 41 35 30 29 27 29 27 24 21 22 24 28 31 32 31 29
288 284 287 291 299 305 306 307 264 245 282 301 324 306 270 150 105 90 76 65 67 74 76 74 70 67 62 53 46 44 41 34 32 29 24 18 15 13 14 15 17 17 16 14
289 285 289 289 294 295 292 290 285 259 264 275 303 306 344 125 93 94 91 80 82 87 89 83 80 77 78 75 65 60 61 51 47 39 33 36 24 16 14 13 13 12 8 3
286 287 289 287 295 297 291 261 253 274 269 258 256 272 292 153 144 133 117 99 98 100 100 96 91 91 91 82 84 75 78 79 67 50 43 36 36 31 23 15 8 6 6 7
287 287 291 295 299 288 299 306 295 257 280 251 278 260 203 178 155 138 130 113 108 107 105 101 96 92 94 97 87 83 77 75 74 70 66 61 54 44 39 32 24 17 9 4
284 285 293 292 290 295 301 306 293 288 292 242 232 235 219 201 153 143 139 123 114 110 108 100 94 88 89 86 83 75 66 63 62 59 55 51 49 40 32 30 25 21 17 10
277 284 283 297 295 297 308 303 301 307 291 290 212 206 189 171 188 173 152 130 116 109 106 98 89 82 77 78 76 67 60 55 50 48 47 43 37 31 26 18 12 11 9 6
274 277 270 276 288 297 303 327 336 292 303 307 210 194 181 188 248 160 146 132 123 115 110 98 87 79 77 82 75 63 58 48 50 46 40 34 29 24 19 14 8 3 359 355
273 276 277 278 284 288 295 287 285 311 311 309 250 194 183 218 230 143 144 139 130 120 111 101 90 83 83 79 70 57 51 52 45 39 34 28 23 18 13 8 2 358 352 347
277 276 285 270 282 303 282 296 278 304 301 301 245 186 182 188 187 152 146 143 136 127 119 111 101 88 76 69 65 56 51 47 41 33 25 21 17 13 7 1 357 352 347 341
275 274 282 287 285 277 281 274 297 300 306 287 246 189 185 190 172 162 149 146 141 135 129 117 106 91 75 66 58 53 48 43 38 29 20 16 11 8 3 1 358 354 349 344
272 264 272 285 287 296 279 263 259 289 290 280 231 198 192 180 179 166 156 152 145 141 133 121 112 94 75 70 55 50 42 40 30 26 17 13 10 7 5 4 2 0 360 355
263 268 263 282 288 270 289 276 234 233 243 241 212 202 198 185 178 176 163 156 149 145 137 126 110 85 72 59 54 43 37 35 27 21 17 14 10 9 9 7 5 8 6 4